Wind_Speed
27 33 33 33 32 30 27 27 26 23 21 21 20 19 17 18 18 17 17 17 16 14 14 15 15 13 11 9 8 6 4 3 4 5 6 9 10 10 12 12 13 14 12
21 33 31 32 30 31 29 27 24 22 23 22 21 18 18 19 19 19 19 18 16 15 15 15 15 12 10 8 6 4 4 4 5 6 8 11 13 12 16 15 15 15 15
26 32 29 31 31 31 30 30 29 26 26 22 19 20 19 20 22 20 20 19 16 15 14 15 14 12 10 8 6 5 5 6 6 8 11 13 14 14 15 15 16 17 17
36 30 29 32 31 31 32 31 30 27 25 26 23 22 19 21 21 21 22 20 17 14 14 15 13 12 9 7 6 6 6 9 10 11 10 9 10 9 10 12 14 14 16
34 26 29 31 32 32 31 28 30 27 24 24 22 21 17 18 21 22 21 20 19 18 17 16 15 13 9 8 8 9 11 12 11 8 5 7 8 9 10 12 13 14 15
29 28 32 35 36 34 35 39 29 28 26 25 24 23 20 19 20 21 20 20 19 18 17 16 14 13 10 10 9 10 11 7 5 4 6 6 8 10 12 14 15 15 16
23 27 31 29 27 30 31 29 33 32 32 29 28 28 25 22 20 20 21 21 19 18 18 17 15 14 13 12 10 8 7 6 5 5 7 8 11 10 13 14 17 20 23
27 32 31 37 33 35 34 33 34 35 33 32 31 28 25 27 25 24 24 24 21 22 20 18 17 17 17 16 14 13 14 12 12 13 13 14 15 16 16 18 22 24 25
29 29 31 31 33 35 37 35 35 36 35 34 33 29 28 29 26 26 25 24 24 22 22 22 21 21 21 21 19 17 15 16 17 16 15 17 18 20 22 24 25 27 28
30 38 33 31 34 38 41 39 34 35 33 33 33 29 26 30 34 26 25 24 24 26 25 24 25 25 24 23 22 19 18 20 20 20 21 22 23 25 27 30 31 33 32
27 35 29 35 39 40 37 41 39 37 37 36 34 33 34 36 27 32 28 22 25 25 24 23 23 23 22 22 23 21 19 23 23 23 26 27 29 31 32 36 31 29 26
31 34 32 31 38 42 42 40 39 39 39 33 32 35 34 35 36 33 19 21 21 21 22 23 26 26 21 21 21 23 25 25 26 28 31 32 34 34 36 32 31 36 37
36 34 33 30 34 47 46 46 44 43 44 42 35 32 34 35 32 20 24 24 24 23 25 27 27 26 27 27 27 25 26 27 30 34 36 37 38 37 37 34 34 37 45
22 23 23 27 39 44 39 42 42 44 44 40 38 34 39 37 34 28 28 26 29 29 30 32 31 31 31 30 28 29 32 34 37 40 42 41 42 41 40 39 35 37 41
27 21 17 23 27 41 39 42 40 48 48 51 44 44 31 36 35 36 36 35 34 36 35 29 31 26 31 35 38 38 40 41 44 44 43 44 47 47 46 41 41 41 38
18 16 17 19 23 31 38 37 39 40 40 46 40 29 35 38 39 42 39 40 40 41 44 37 35 32 31 33 36 40 42 41 44 45 45 47 50 50 51 49 46 42 38
18 19 22 21 23 22 26 30 33 34 36 35 36 38 43 45 46 44 40 44 45 46 49 44 42 39 41 41 41 42 44 45 46 47 45 47 49 50 49 56 49 43 42
13 17 22 25 26 29 31 29 32 35 38 41 42 42 46 48 51 48 47 45 45 48 52 53 48 48 48 45 46 46 45 46 47 47 49 50 49 51 48 52 47 46 48
15 18 20 22 23 26 32 35 38 37 37 40 42 44 45 47 46 48 48 47 48 50 53 55 55 53 52 48 47 48 48 48 47 46 43 43 47 47 45 43 48 51 50
17 19 21 22 25 27 27 28 31 34 36 37 40 41 43 46 45 46 47 46 45 49 52 57 56 53 52 51 50 51 50 47 48 46 47 46 54 50 51 50 49 52 55
22 24 25 25 27 28 30 32 33 33 33 36 38 38 39 42 41 41 45 44 47 50 52 53 55 54 54 56 55 52 56 53 55 53 52 53 54 58 53 55 57 56 55
26 28 30 31 32 33 33 35 37 39 40 41 42 41 42 43 43 43 46 48 49 53 54 55 57 59 59 59 59 57 57 58 59 58 56 60 57 57 56 59 59 55 59
32 33 34 36 39 38 37 39 40 43 46 47 47 47 48 48 48 49 50 51 53 55 58 58 62 62 62 62 61 63 60 60 61 56 63 59 61 69 65 59 58 74 60
34 34 35 39 42 41 40 41 42 44 45 48 51 51 52 53 54 55 56 58 59 61 62 62 64 66 66 65 62 61 61 60 63 60 65 66 68 67 68 66 71 68 59
37 39 39 39 41 41 40 43 44 44 45 47 48 50 53 57 58 60 63 63 63 64 64 65 65 66 65 63 63 59 60 67 65 70 68 73 66 68 68 62 61 59 56
40 43 45 46 46 46 44 45 45 49 51 49 53 57 53 56 59 60 56 57 60 58 60 62 65 64 63 66 69 69 66 69 66 78 70 70 73 64 56 58 53 49 47
Wind_Direction
237 227 187 193 198 204 212 218 212 198 195 192 198 192 194 198 193 189 190 186 183 174 174 176 179 180 180 173 168 179 201 226 251 266 276 282 279 280 280 279 273 272 277
226 188 189 193 198 200 210 222 222 212 203 188 186 196 198 201 197 192 196 191 183 179 183 188 191 190 186 182 192 210 238 264 289 296 296 296 287 285 279 277 274 278 281
228 187 189 197 199 200 203 209 213 211 208 201 196 194 201 209 203 195 200 195 189 189 191 198 201 197 192 199 212 234 267 285 290 295 299 298 293 288 281 280 283 284 283
206 179 192 194 191 195 203 210 211 210 210 195 195 198 204 212 210 203 205 199 196 195 201 201 199 203 204 217 234 259 277 284 290 294 299 308 304 306 314 311 303 297 293
174 186 194 197 194 204 211 211 212 209 209 203 195 199 209 215 215 211 209 206 202 194 197 203 207 214 220 237 254 272 278 279 283 284 300 308 325 329 326 322 319 315 308
189 196 196 206 209 219 226 219 216 220 212 211 206 207 211 215 213 212 212 214 210 202 205 211 217 227 235 246 258 271 271 257 255 268 279 302 321 336 327 328 323 316 312
202 203 190 199 207 216 217 207 213 214 210 211 214 213 204 212 209 206 208 209 209 211 218 222 228 236 240 245 248 246 231 231 250 283 282 296 307 306 304 309 316 315 309
223 207 213 202 207 208 208 212 217 212 208 212 216 216 213 215 207 203 202 207 210 220 226 233 238 242 244 242 239 237 238 250 254 265 276 285 289 292 294 297 302 303 304
214 212 213 220 211 224 209 210 218 215 212 212 220 220 217 221 212 211 211 214 220 227 232 239 244 244 245 245 243 245 248 253 257 267 272 277 285 292 293 290 291 293 294
217 216 204 215 224 217 213 209 216 220 218 222 218 214 221 229 221 219 221 223 233 236 238 242 246 249 248 248 249 251 252 258 263 266 274 282 287 289 289 289 288 289 286
224 217 220 222 221 221 214 218 211 216 221 220 223 222 225 228 228 224 223 224 242 245 249 252 253 254 253 249 252 253 262 267 262 272 281 285 290 295 293 295 284 289 278
221 216 219 222 221 218 215 219 217 220 221 220 226 232 232 244 234 242 229 234 241 244 247 248 247 249 250 248 248 255 264 260 266 274 282 285 287 291 295 300 284 284 280
224 217 225 227 225 223 214 215 221 221 230 225 224 229 234 248 249 225 236 238 246 250 248 250 249 251 254 256 259 260 262 265 265 275 281 283 285 286 291 288 277 277 288
204 219 226 234 228 230 230 227 230 230 222 215 221 224 231 244 252 253 249 250 252 251 253 260 260 265 267 266 264 264 266 271 272 275 280 282 284 285 283 285 282 284 272
210 233 241 229 234 241 238 236 235 234 223 231 220 226 237 245 248 258 255 254 258 262 262 258 265 274 273 271 275 275 277 275 274 280 282 283 285 283 280 281 277 284 285
221 226 229 225 226 237 238 242 240 239 248 248 250 235 238 242 250 259 251 252 258 265 268 269 275 277 278 277 274 275 277 279 279 278 279 281 283 282 273 272 274 274 276
214 221 231 224 230 232 232 243 247 246 252 256 253 246 246 252 254 259 255 253 254 260 268 273 274 275 275 276 276 277 277 276 276 276 280 281 283 282 286 274 272 268 275
249 241 233 234 233 232 242 248 244 249 252 253 253 252 250 250 253 255 255 258 261 264 268 273 276 277 278 279 279 278 277 273 276 279 279 277 280 280 282 282 264 270 270
264 256 254 251 249 242 235 237 243 244 244 248 251 251 252 251 252 252 255 258 261 264 268 271 275 279 278 277 276 274 273 273 277 280 278 281 280 284 280 275 267 269 269
258 262 262 264 261 258 256 254 250 250 250 250 250 250 250 250 250 251 254 258 260 263 267 271 275 273 275 276 275 277 278 278 278 277 276 275 276 281 279 276 274 272 267
255 256 258 259 261 262 263 263 262 262 259 258 258 257 257 258 258 259 261 263 266 267 268 270 272 273 271 273 273 276 276 278 278 277 275 273 276 279 275 276 279 272 277
264 260 259 256 254 255 257 261 264 264 263 263 262 262 261 261 260 258 259 261 263 266 266 266 267 268 269 271 274 273 275 277 278 279 278 275 278 274 276 274 274 275 279
258 262 265 264 265 263 259 257 258 261 263 262 262 262 263 262 262 262 262 263 263 264 265 266 267 268 271 272 273 277 276 276 278 277 282 280 282 279 279 277 275 283 271
269 268 269 268 267 264 263 263 263 263 264 267 267 266 265 265 265 264 263 263 262 264 265 267 268 269 269 272 274 275 278 280 281 283 277 284 281 280 283 279 278 279 268
272 273 273 270 267 266 266 260 259 262 265 268 271 270 267 266 266 265 263 263 264 265 267 268 270 272 273 274 275 275 278 272 275 277 278 277 275 280 276 276 270 270 267
274 272 269 267 266 267 264 262 261 263 265 266 268 271 274 268 265 264 262 263 264 263 265 264 265 267 270 273 275 271 271 268 276 270 272 275 276 272 265 267 265 264 263
Height
3088 3092 3098 3105 3110 3113 3115 3118 3124 3128 3131 3135 3139 3140 3142 3145 3147 3148 3151 3152 3154 3155 3158 3161 3164 3166 3168 3169 3170 3172 3173 3174 3175 3175 3175 3176 3176 3175 3176 3176 3176 3176 3175
3085 3090 3096 3102 3107 3111 3112 3116 3120 3126 3131 3134 3136 3138 3141 3144 3145 3147 3151 3152 3153 3155 3158 3161 3164 3165 3167 3168 3170 3172 3173 3173 3174 3174 3174 3174 3173 3172 3173 3173 3173 3173 3172
3079 3087 3094 3099 3105 3109 3112 3115 3119 3124 3128 3131 3133 3136 3140 3144 3145 3146 3150 3152 3154 3156 3157 3161 3163 3165 3166 3168 3169 3170 3171 3172 3172 3172 3172 3171 3171 3170 3170 3170 3170 3170 3169
3078 3085 3092 3097 3102 3107 3111 3115 3116 3121 3125 3130 3133 3135 3140 3142 3144 3146 3148 3150 3153 3154 3158 3160 3162 3164 3165 3166 3168 3169 3169 3169 3169 3170 3169 3169 3169 3169 3168 3168 3168 3168 3167
3076 3083 3090 3095 3101 3106 3110 3113 3115 3119 3124 3128 3131 3135 3138 3140 3142 3144 3147 3149 3150 3152 3156 3158 3160 3162 3163 3165 3166 3166 3166 3166 3166 3167 3167 3168 3167 3167 3166 3166 3165 3165 3165
3076 3081 3086 3093 3098 3103 3107 3110 3114 3117 3123 3126 3130 3133 3136 3139 3140 3142 3145 3147 3149 3151 3153 3156 3158 3160 3161 3163 3163 3163 3163 3163 3164 3165 3165 3166 3164 3163 3164 3163 3163 3163 3162
3074 3080 3084 3090 3095 3100 3104 3108 3112 3115 3120 3122 3126 3130 3132 3134 3136 3139 3142 3144 3147 3149 3151 3153 3155 3156 3158 3160 3160 3160 3161 3161 3162 3162 3162 3162 3162 3160 3161 3160 3160 3159 3159
3073 3077 3082 3085 3091 3097 3102 3106 3109 3112 3116 3119 3123 3126 3129 3131 3132 3135 3137 3140 3144 3146 3148 3150 3152 3153 3155 3156 3157 3157 3158 3158 3159 3159 3159 3159 3158 3158 3157 3157 3156 3155 3154
3070 3074 3079 3083 3087 3092 3097 3102 3106 3109 3113 3116 3119 3123 3125 3127 3130 3132 3134 3137 3139 3142 3144 3146 3148 3150 3151 3152 3153 3154 3154 3155 3156 3156 3155 3155 3154 3153 3152 3151 3150 3149 3148
3067 3071 3075 3079 3084 3087 3091 3095 3103 3106 3110 3113 3116 3117 3121 3126 3126 3127 3131 3133 3136 3138 3140 3142 3144 3145 3146 3148 3149 3149 3150 3151 3151 3150 3150 3149 3148 3147 3146 3145 3144 3142 3141
3063 3068 3072 3075 3078 3083 3088 3091 3096 3102 3107 3110 3112 3114 3116 3119 3123 3127 3127 3129 3131 3134 3135 3137 3139 3140 3141 3142 3143 3144 3145 3145 3145 3144 3144 3142 3141 3139 3138 3137 3134 3134 3133
3059 3064 3068 3072 3075 3079 3084 3088 3092 3098 3102 3105 3110 3111 3113 3116 3119 3121 3121 3125 3127 3128 3130 3131 3132 3134 3135 3136 3137 3139 3139 3139 3139 3138 3137 3135 3133 3131 3130 3127 3125 3125 3125
3055 3061 3065 3068 3072 3075 3078 3083 3087 3091 3094 3098 3103 3107 3109 3110 3115 3115 3118 3120 3121 3122 3123 3125 3127 3129 3129 3130 3131 3131 3132 3132 3131 3130 3129 3127 3125 3124 3122 3121 3118 3115 3113
3055 3059 3062 3064 3067 3070 3074 3078 3084 3087 3090 3092 3097 3100 3104 3106 3110 3112 3114 3115 3114 3115 3116 3117 3120 3122 3123 3123 3123 3123 3123 3123 3122 3121 3120 3118 3116 3115 3113 3111 3109 3107 3105
3053 3056 3058 3060 3063 3067 3071 3075 3078 3082 3085 3086 3089 3092 3095 3101 3103 3105 3107 3108 3108 3106 3107 3111 3112 3115 3114 3114 3116 3115 3112 3112 3111 3110 3108 3107 3105 3104 3103 3101 3100 3097 3094
3050 3053 3056 3060 3062 3064 3068 3071 3074 3077 3079 3081 3084 3084 3090 3094 3097 3098 3099 3100 3101 3100 3096 3102 3102 3105 3105 3105 3105 3104 3103 3102 3101 3100 3098 3097 3095 3092 3091 3090 3089 3087 3085
3047 3050 3053 3055 3059 3062 3064 3066 3069 3073 3074 3076 3077 3080 3084 3088 3088 3090 3092 3092 3092 3092 3087 3091 3092 3094 3093 3094 3094 3093 3092 3089 3088 3087 3086 3084 3082 3079 3077 3075 3075 3075 3074
3047 3049 3050 3051 3053 3055 3057 3058 3060 3063 3065 3067 3070 3073 3075 3079 3079 3081 3082 3082 3082 3083 3080 3078 3082 3081 3081 3082 3081 3079 3079 3077 3075 3075 3075 3071 3069 3067 3063 3062 3062 3062 3061
3044 3046 3047 3048 3049 3049 3051 3053 3055 3056 3057 3059 3062 3063 3065 3068 3069 3071 3071 3072 3072 3073 3071 3068 3068 3070 3068 3069 3068 3067 3066 3065 3065 3064 3062 3060 3057 3054 3052 3049 3048 3047 3046
3039 3041 3042 3044 3045 3046 3047 3047 3048 3049 3050 3051 3053 3054 3055 3056 3058 3060 3061 3061 3061 3060 3059 3056 3054 3056 3054 3054 3054 3053 3051 3053 3050 3051 3048 3046 3044 3041 3039 3037 3035 3034 3033
3035 3035 3036 3037 3038 3039 3041 3042 3043 3043 3043 3043 3044 3045 3046 3047 3049 3050 3049 3050 3049 3047 3046 3044 3041 3040 3041 3038 3039 3042 3036 3038 3035 3036 3034 3033 3031 3028 3026 3024 3021 3019 3017
3029 3029 3030 3030 3030 3031 3033 3034 3035 3035 3035 3035 3035 3037 3037 3038 3038 3039 3037 3037 3038 3035 3033 3032 3029 3025 3024 3024 3023 3025 3023 3021 3018 3020 3019 3016 3014 3013 3011 3010 3006 3004 3003
3023 3023 3024 3024 3024 3024 3025 3024 3024 3023 3023 3023 3024 3025 3025 3026 3028 3028 3028 3026 3024 3022 3020 3019 3014 3013 3012 3013 3013 3008 3010 3010 3005 3003 3000 2996 2997 2994 2988 2991 2988 2985 2984
3014 3015 3015 3014 3014 3014 3015 3015 3015 3013 3012 3011 3012 3013 3012 3013 3013 3013 3013 3010 3010 3008 3006 3005 3002 3000 2999 2998 2999 2997 2994 2992 2989 2988 2983 2981 2977 2976 2974 2972 2971 2968 2965
3003 3003 3003 3003 3001 3002 3004 3001 3000 3000 2999 2999 2999 2999 2997 2995 2996 2996 2994 2993 2993 2992 2990 2989 2987 2984 2983 2982 2982 2982 2978 2977 2973 2969 2967 2965 2959 2958 2956 2953 2950 2951 2949
2991 2990 2989 2987 2986 2985 2987 2988 2989 2988 2985 2987 2989 2985 2980 2978 2977 2979 2977 2977 2976 2974 2971 2968 2968 2967 2965 2963 2961 2960 2960 2958 2954 2955 2948 2948 2945 2940 2938 2935 2935 2936 2934